When you browse on this site, cookies collect data to enhance your experience and personalize the content and advertising you see.
Visit our Privacy Policy to learn more. By continuing to use the site, you agree to this use of cookies and data.
  • In United Kingdom
  • List of Countries
  • For 7 days
  • Water Temperature
  • Weather Map
  • Weather Widgets
  • user-avatar
    Login

    Hourly Weather Bletchley

    Today, 27 February, Thursday

    Time Temperature Precipitation Wind Pressure Humidity
    00:00 +1°C° 0 mm 3 mps 744 mmHg 88%
    01:00 +1°C° 0.1 mm 3 mps 743 mmHg 89%
    02:00 +1°C° 0.1 mm 3 mps 742 mmHg 90%
    03:00 +1°C° 0.1 mm 3 mps 741 mmHg 90%
    04:00 +2°C° 1 mm 2 mps 740 mmHg 93%
    05:00 +2°C° 1 mm 2 mps 739 mmHg 95%
    06:00 +2°C° 0 mm 2 mps 738 mmHg 97%
    07:00 +2°C° 1.1 mm 2 mps 739 mmHg 97%
    08:00 0°C° 1.1 mm 3 mps 739 mmHg 97%
    09:00 -1°C° 1.1 mm 4 mps 739 mmHg 97%
    10:00 0°C° 0.1 mm 5 mps 740 mmHg 92%
    11:00 +1°C° 0.1 mm 6 mps 741 mmHg 86%
    12:00 +2°C° 0.1 mm 7 mps 742 mmHg 80%
    13:00 +2°C° 0 mm 8 mps 743 mmHg 77%
    14:00 +2°C° 0 mm 8 mps 744 mmHg 73%
    15:00 +4°C° 0 mm 8 mps 744 mmHg 70%
    16:00 +2°C° 0 mm 7 mps 745 mmHg 73%
    17:00 +1°C° 0 mm 6 mps 747 mmHg 76%
    18:00 0°C° 0 mm 5 mps 748 mmHg 79%
    19:00 0°C° 0 mm 5 mps 749 mmHg 81%
    20:00 -1°C° 0 mm 4 mps 749 mmHg 83%
    21:00 -1°C° 0 mm 4 mps 750 mmHg 85%
    22:00 -1°C° 0 mm 4 mps 751 mmHg 86%
    23:00 -1°C° 0 mm 4 mps 751 mmHg 87%

    Tomorrow, 28 February, Friday

    Time Temperature Precipitation Wind Pressure Humidity
    00:00 -1°C° 0 mm 3 mps 752 mmHg 88%
    01:00 -1°C° 0 mm 3 mps 751 mmHg 88%
    02:00 0°C° 0 mm 3 mps 751 mmHg 88%
    03:00 0°C° 0 mm 3 mps 751 mmHg 87%
    04:00 0°C° 0 mm 3 mps 751 mmHg 86%
    05:00 0°C° 0 mm 4 mps 750 mmHg 85%
    06:00 0°C° 0 mm 4 mps 750 mmHg 83%
    07:00 0°C° 0.3 mm 5 mps 749 mmHg 87%
    08:00 0°C° 0.3 mm 7 mps 748 mmHg 90%
    09:00 0°C° 0.3 mm 8 mps 747 mmHg 93%
    10:00 +1°C° 1.5 mm 9 mps 746 mmHg 94%
    11:00 +1°C° 1.5 mm 9 mps 745 mmHg 94%
    12:00 +1°C° 1.5 mm 10 mps 744 mmHg 94%
    13:00 +3°C° 1.2 mm 9 mps 742 mmHg 95%
    14:00 +5°C° 1.2 mm 8 mps 741 mmHg 95%
    15:00 +6°C° 1.2 mm 7 mps 740 mmHg 96%
    16:00 +8°C° 0.1 mm 7 mps 739 mmHg 94%
    17:00 +9°C° 0.1 mm 7 mps 739 mmHg 93%
    18:00 +9°C° 0.1 mm 8 mps 739 mmHg 92%
    19:00 +9°C° 0 mm 8 mps 738 mmHg 91%
    20:00 +8°C° 0 mm 9 mps 738 mmHg 90%
    21:00 +7°C° 0 mm 9 mps 737 mmHg 90%
    22:00 +7°C° 0 mm 9 mps 736 mmHg 89%
    23:00 +7°C° 0 mm 10 mps 736 mmHg 88%

    Day after tomorrow, 29 February, Saturday

    Time Temperature Precipitation Wind Pressure Humidity
    00:00 +7°C° 0 mm 10 mps 735 mmHg 87%
    01:00 +7°C° 0 mm 10 mps 734 mmHg 87%
    02:00 +7°C° 0 mm 10 mps 732 mmHg 87%
    03:00 +7°C° 0 mm 10 mps 731 mmHg 86%
    04:00 +7°C° 0.3 mm 11 mps 729 mmHg 87%
    05:00 +7°C° 0.3 mm 12 mps 728 mmHg 87%
    06:00 +7°C° 0.3 mm 13 mps 727 mmHg 88%
    07:00 +6°C° 1.8 mm 11 mps 727 mmHg 89%
    08:00 +5°C° 1.8 mm 10 mps 726 mmHg 90%
    09:00 +2°C° 1.8 mm 8 mps 726 mmHg 91%
    10:00 +2°C° 0.3 mm 9 mps 727 mmHg 83%
    11:00 +2°C° 0.3 mm 9 mps 728 mmHg 75%
    12:00 +2°C° 0.3 mm 9 mps 729 mmHg 67%
    13:00 +2°C° 0.2 mm 10 mps 729 mmHg 67%
    14:00 +2°C° 0.2 mm 10 mps 729 mmHg 68%
    15:00 +2°C° 0.2 mm 11 mps 729 mmHg 68%
    16:00 +1°C° 0.1 mm 10 mps 730 mmHg 70%
    17:00 0°C° 0.1 mm 9 mps 730 mmHg 73%
    18:00 0°C° 0.1 mm 8 mps 730 mmHg 75%
    19:00 0°C° 0 mm 8 mps 730 mmHg 75%
    20:00 0°C° 0 mm 9 mps 730 mmHg 76%
    21:00 0°C° 0 mm 10 mps 730 mmHg 76%
    22:00 0°C° 0 mm 10 mps 730 mmHg 76%
    23:00 0°C° 0 mm 10 mps 730 mmHg 76%

    1 March, Sunday

    Time Temperature Precipitation Wind Pressure Humidity
    00:00 0°C° 0 mm 10 mps 730 mmHg 76%
    01:00 0°C° 0 mm 10 mps 730 mmHg 75%
    02:00 0°C° 0 mm 10 mps 729 mmHg 75%
    03:00 0°C° 0 mm 10 mps 729 mmHg 74%
    04:00 0°C° 0 mm 10 mps 729 mmHg 74%
    05:00 0°C° 0 mm 9 mps 730 mmHg 74%
    06:00 0°C° 0 mm 9 mps 730 mmHg 74%
    07:00 0°C° 0 mm 9 mps 730 mmHg 74%
    08:00 +1°C° 0 mm 9 mps 730 mmHg 75%
    09:00 +1°C° 0 mm 10 mps 730 mmHg 75%
    10:00 +2°C° 0 mm 10 mps 730 mmHg 71%
    11:00 +3°C° 0 mm 10 mps 730 mmHg 67%
    12:00 +5°C° 0 mm 10 mps 730 mmHg 63%
    13:00 +5°C° 0.1 mm 9 mps 730 mmHg 64%
    14:00 +5°C° 0.1 mm 9 mps 730 mmHg 64%
    15:00 +5°C° 0.1 mm 9 mps 730 mmHg 65%
    16:00 +2°C° 0 mm 8 mps 730 mmHg 69%
    17:00 +2°C° 0 mm 7 mps 731 mmHg 72%
    18:00 +1°C° 0 mm 6 mps 731 mmHg 76%
    19:00 +1°C° 0 mm 6 mps 731 mmHg 77%
    20:00 -1°C° 0 mm 6 mps 731 mmHg 78%
    21:00 -1°C° 0 mm 6 mps 731 mmHg 79%
    22:00 -1°C° 0 mm 6 mps 732 mmHg 81%
    23:00 0°C° 0 mm 5 mps 732 mmHg 82%

    2 March, Monday

    Time Temperature Precipitation Wind Pressure Humidity
    00:00 -1°C° 0 mm 5 mps 732 mmHg 83%
    01:00 -1°C° 0 mm 5 mps 732 mmHg 86%
    02:00 -1°C° 0 mm 4 mps 732 mmHg 88%
    03:00 -2°C° 0 mm 4 mps 732 mmHg 90%
    04:00 -1°C° 0 mm 3 mps 732 mmHg 89%
    05:00 -1°C° 0 mm 3 mps 733 mmHg 87%
    06:00 -1°C° 0 mm 3 mps 733 mmHg 86%
    07:00 -1°C° 0 mm 4 mps 733 mmHg 82%
    08:00 +1°C° 0 mm 5 mps 734 mmHg 77%
    09:00 +2°C° 0 mm 5 mps 734 mmHg 73%
    10:00 +3°C° 0.1 mm 6 mps 735 mmHg 71%
    11:00 +4°C° 0.1 mm 6 mps 735 mmHg 68%
    12:00 +5°C° 0.1 mm 7 mps 735 mmHg 66%
    13:00 +4°C° 0.2 mm 6 mps 736 mmHg 66%
    14:00 +4°C° 0.2 mm 6 mps 736 mmHg 65%
    15:00 +4°C° 0.2 mm 6 mps 736 mmHg 65%
    16:00 +3°C° 0.1 mm 5 mps 737 mmHg 70%
    17:00 +2°C° 0.1 mm 5 mps 737 mmHg 75%
    18:00 +1°C° 0.1 mm 4 mps 738 mmHg 80%
    19:00 0°C° 0 mm 4 mps 738 mmHg 82%
    20:00 0°C° 0 mm 4 mps 739 mmHg 83%
    21:00 -1°C° 0 mm 4 mps 739 mmHg 85%
    22:00 -1°C° 0 mm 4 mps 740 mmHg 85%
    23:00 -2°C° 0 mm 4 mps 740 mmHg 86%

    3 March, Tuesday

    Time Temperature Precipitation Wind Pressure Humidity
    00:00 -2°C° 0 mm 4 mps 740 mmHg 86%
    01:00 -2°C° 0 mm 4 mps 740 mmHg 87%
    02:00 -2°C° 0 mm 4 mps 740 mmHg 87%
    03:00 -2°C° 0 mm 4 mps 740 mmHg 88%
    04:00 -2°C° 0 mm 4 mps 740 mmHg 88%
    05:00 -1°C° 0 mm 3 mps 740 mmHg 89%
    06:00 -2°C° 0 mm 3 mps 740 mmHg 89%
    07:00 0°C° 0 mm 3 mps 740 mmHg 86%
    08:00 +1°C° 0 mm 3 mps 740 mmHg 82%
    09:00 +2°C° 0 mm 3 mps 740 mmHg 78%
    10:00 +3°C° 0 mm 3 mps 740 mmHg 74%
    11:00 +4°C° 0 mm 3 mps 740 mmHg 70%
    12:00 +5°C° 0 mm 3 mps 740 mmHg 65%
    13:00 +5°C° 0.1 mm 3 mps 739 mmHg 67%
    14:00 +5°C° 0.1 mm 3 mps 739 mmHg 70%
    15:00 +5°C° 0.1 mm 3 mps 738 mmHg 72%
    16:00 +5°C° 0.1 mm 2 mps 738 mmHg 79%
    17:00 +4°C° 0.1 mm 2 mps 738 mmHg 86%
    18:00 +4°C° 0.1 mm 1 mps 738 mmHg 93%
    19:00 +4°C° 0 mm 1 mps 738 mmHg 93%
    20:00 +4°C° 0 mm 1 mps 739 mmHg 94%
    21:00 +4°C° 0 mm 1 mps 739 mmHg 94%
    22:00 +4°C° 0 mm 1 mps 739 mmHg 94%
    23:00 +4°C° 0 mm 1 mps 740 mmHg 94%
    Show more